Location: Stull Observatory
(42.2506°N, 77.7903°W)
Time: 03:33:55
(UTC-04:00)

Daily predictions for brighter satellites

Satellite Brightness Start Highest point End
(mag) Time Altitude Azimuth Time Altitude Azimuth Time Altitude Azimuth
H-2A R/B 4.2 00:10:18 24° NW 00:10:18 24° NW 00:12:17 10° NNW
ATLAS 3B R/B 4.1 00:06:34 10° WNW 00:11:07 24° W 00:11:07 24° W
Cosmos 2219 Rocket 3.0 00:14:24 47° NW 00:14:24 47° NW 00:19:17 10° NNE
COSMOS 2428 4.3 00:17:01 26° W 00:18:34 30° NW 00:23:34 10° N
SL-16 R/B 3.9 00:21:37 23° NE 00:21:37 23° NE 00:23:55 10° NE
CZ-2C R/B 3.8 00:16:06 10° NNE 00:19:21 38° NNE 00:19:21 38° NNE
Terra 4.2 00:24:36 16° WNW 00:24:36 16° WNW 00:26:31 10° NW
NOSS 3-2 (C) 4.2 00:19:32 10° NW 00:26:27 62° W 00:26:27 62° W
Cosmos 2333 Rocket 3.2 00:32:48 42° NW 00:32:48 42° NW 00:37:28 10° NNE
NOSS 3-4 (A) 4.4 00:54:00 42° WNW 00:54:30 43° NW 01:00:43 10° NNE
NOSS 3-4 (C) 4.3 00:54:09 43° WNW 00:54:36 44° NW 01:00:49 10° NNE
Mayak 1.5 00:51:26 10° NNE 00:52:18 16° NNE 00:52:18 16° NNE
Cosmos 2237 Rocket 3.4 00:57:08 37° NNW 00:57:08 37° NNW 01:01:25 10° NNE
Cosmos 2369 Rocket 4.1 00:55:09 10° N 00:59:31 22° NE 00:59:57 22° ENE
CENTAUR R/B 3.1 00:57:13 10° NW 01:04:37 79° WNW 01:04:37 79° WNW
USA 215 3.5 01:13:10 65° N 01:13:10 65° N 01:19:09 10° NW
ATLAS CENTAUR R/B 3.9 01:28:27 10° NW 01:35:02 41° NW 01:35:02 41° NW
COSMOS 2455 4.3 01:39:18 10° NW 01:42:18 29° NW 01:42:18 29° NW
SL-16 R/B 3.7 02:03:29 29° NW 02:03:29 29° NW 02:07:46 10° N
Cosmos 1943 Rocket 2.8 02:26:43 10° NNW 02:31:10 52° NNE 02:31:10 52° NNE
SL-16 R/B 3.8 02:30:31 27° ESE 02:32:52 36° ENE 02:38:25 10° N
Cosmos 2218 Rocket 4.4 02:35:42 54° NW 02:35:42 54° NW 02:41:11 10° N
Resurs 1-4 Rocket 3.7 02:34:07 10° NE 02:38:22 25° E 02:38:22 25° E
Cosmos 2369 Rocket 3.3 02:38:23 10° NNW 02:41:42 35° NW 02:41:42 35° NW
CZ-3A R/B 3.5 02:36:15 10° NW 02:47:19 76° NE 02:52:37 10° ESE
CZ-2D R/B 3.4 02:44:05 10° NE 02:48:48 30° E 02:48:55 30° E
Cosmos 1943 3.7 02:56:08 53° NNW 02:56:08 53° NNW 03:01:00 10° NNE
Cosmos 841 Rocket 3.9 03:01:51 60° NNE 03:01:51 60° NNE 03:06:05 10° NNE
USA 32 4.5 02:56:03 10° N 03:01:01 56° ENE 03:01:01 56° ENE
ARIANE 5 R/B 3.4 03:06:49 10° NNE 03:11:46 41° E 03:12:11 40° ESE
Cosmos 1000 Rocket 4.3 03:06:28 10° N 03:12:44 84° W 03:12:56 82° SW
SL-08 R/B 4.1 03:15:58 43° NNW 03:15:58 43° NNW 03:19:13 10° NNW
BREEZE-M DEB (TANK) 3.8 03:13:14 54° WNW 03:14:29 68° NNW 03:32:25 10° ENE
Cosmos 1626 4.4 03:13:17 10° N 03:14:42 22° N 03:14:42 22° N
Meteor 1-16 Rocket 4.5 03:17:55 59° WNW 03:17:55 59° WNW 03:23:23 10° N
UNK 4.2 03:19:10 59° NNE 03:19:10 59° NNE 03:23:07 10° N
Cosmos 304 Rocket 4.2 03:20:35 60° N 03:20:35 60° N 03:24:32 10° NNE
Cosmos 2239 Rocket 4.3 03:19:57 76° SSW 03:20:29 86° W 03:26:50 10° N
ADEOS Rocket 2.9 03:16:34 10° N 03:21:45 61° WNW 03:21:45 61° WNW
Cosmos 1400 Rocket 4.2 03:20:09 10° N 03:23:32 36° ENE 03:23:32 36° ENE
Cosmos 1726 4.2 03:29:16 21° E 03:29:24 21° E 03:32:16 10° NE
Cosmos 1535 Rocket 4.4 03:28:55 69° SSW 03:29:43 80° W 03:36:10 10° N
IRS-1D 3.5 03:31:00 10° NNE 03:36:10 79° ESE 03:36:34 73° SSE
Cosmos 2221 2.7 03:41:01 71° NE 03:41:01 71° NE 03:44:57 10° N
Cosmos 1805 Rocket 4.1 03:37:17 10° N 03:41:40 54° E 03:42:20 49° ESE
Cosmos 2058 4.4 03:37:57 10° NNW 03:40:03 27° NNW 03:40:03 27° NNW
ADEOS 3.7 03:39:05 10° NNE 03:44:19 70° ESE 03:45:16 56° SSE
Spot 4 Rocket 3.8 03:39:29 10° NNE 03:44:41 86° WNW 03:45:08 75° SSW
NPP 4.2 03:42:19 10° N 03:47:22 42° WNW 03:47:30 42° WNW
COSMOS 2406 3.3 03:47:05 53° S 03:48:18 69° ESE 03:53:58 10° NNE
Cosmos 2285 Rocket 4.3 03:46:52 39° SSE 03:49:08 63° ESE 03:55:27 10° NNE
Cosmos 372 Rocket 3.8 03:45:09 10° NNW 03:50:20 81° WSW 03:50:59 67° S
Cosmos 2098 Rocket 3.8 03:52:12 56° WSW 03:52:54 60° W 03:57:59 10° N
IRS-1C 4.4 03:48:17 10° N 03:53:26 50° WNW 03:53:50 49° W
CBERS 1 LM4 rocket 4.5 03:48:37 10° NNE 03:53:47 81° WNW 03:54:37 63° SW
Okean O Rocket 4.4 03:56:46 10° ENE 03:58:26 12° E 04:00:06 10° ESE
Cosmos 540 Rocket 3.6 03:58:15 54° W 03:58:40 56° WNW 04:03:43 10° NNE
Meteor 2-1 Rocket 4.4 03:58:39 50° W 03:59:14 52° WNW 04:04:39 10° N
Cosmos 1908 3.8 04:03:42 46° NW 04:03:42 46° NW 04:06:44 10° N
Cosmos 783 Rocket 4.4 04:05:05 54° SSW 04:06:20 86° WNW 04:11:38 10° NNE
MOS 1 Rocket 3.1 04:02:49 10° N 04:07:06 62° WNW 04:07:19 61° W
Cosmos 1300 3.3 04:12:33 41° SE 04:13:31 54° E 04:17:16 10° NNE
Cosmos 1125 Rocket 3.9 04:09:38 10° NW 04:14:14 41° W 04:14:14 41° W
Cosmos 1943 Rocket 4.1 04:11:41 10° WNW 04:12:39 13° WNW 04:12:39 13° WNW
Sich 1 3.0 04:11:40 10° N 04:16:05 85° E 04:17:46 37° S
SL-16 R/B 3.0 04:15:37 37° WSW 04:16:23 39° W 04:22:10 10° NNW
BREEZE M DEB (TANK) 3.9 04:17:34 22° E 04:17:34 22° E 04:18:37 10° ESE
Resurs 1-4 Rocket 2.6 04:13:27 10° N 04:18:23 42° WNW 04:19:26 37° W
Cosmos 2123 Rocket 4.3 04:13:18 10° NNW 04:19:13 45° W 04:20:53 37° SW
CZ-2D R/B 3.2 04:16:29 10° NNE 04:20:30 86° WNW 04:21:16 58° SSW
Cosmos 1656 Rocket 4.1 04:18:24 10° NW 04:23:37 38° WSW 04:24:03 37° WSW
Cosmos 1315 Rocket 2.7 04:23:16 10° NNW 04:27:18 76° W 04:28:34 42° S
CZ-2D R/B 2.9 04:24:02 10° N 04:28:52 35° WNW 04:30:15 31° W
OPS 8737 4.3 04:29:28 64° WSW 04:29:53 75° NW 04:33:14 10° NNE
Cosmos 1459 Rocket 4.2 04:25:34 14° S 04:30:50 70° E 04:36:53 10° NNE
Cosmos 1470 Rocket 4.3 04:27:50 10° N 04:32:04 51° E 04:36:16 10° SSE
Cosmos 1538 Rocket 4.2 04:30:40 26° S 04:33:48 75° ESE 04:39:11 10° NNE
Cosmos 2228 Rocket 3.5 04:31:12 19° S 04:34:18 62° E 04:38:42 10° NNE
USA 229 DEB 3.9 04:30:01 10° NW 04:36:55 52° WSW 04:43:56 10° S
USA 229 3.9 04:30:07 10° NW 04:37:01 52° WSW 04:44:03 10° S
Cosmos 2082 Rocket 3.8 04:35:52 10° SSE 04:40:41 30° ESE 04:45:32 10° NE
Cosmos 1515 Rocket 4.0 04:37:53 15° S 04:41:24 61° E 04:45:46 10° NNE
NOSS 3-1 (A) 4.3 04:34:34 10° NNW 04:42:10 74° NE 04:50:35 10° SE
PSLV R/B 3.0 04:42:54 58° WSW 04:43:22 71° S 04:46:37 10° E
Cosmos 1633 Rocket 3.1 04:40:10 10° NNW 04:44:28 56° W 04:46:49 25° SSW
USA 161 2.3 04:47:07 27° N 04:47:07 27° N 04:48:12 10° N
Tiangong 2 3.2 04:46:42 16° SSE 04:47:20 17° SSE 04:49:31 10° ESE
Cosmos 292 Rocket 4.1 04:46:24 30° WSW 04:48:22 48° WNW 04:53:03 10° N
Cosmos 2061 Rocket 4.1 04:43:46 10° S 04:50:11 87° E 04:56:40 10° N
ARIANE 5 R/B 3.8 04:46:21 10° N 04:50:40 26° WNW 04:52:31 21° W
Lacrosse 5 3.0 04:45:56 10° NW 04:50:49 45° NE 04:55:41 10° ESE
CZ-4B R/B 3.7 04:51:52 10° NNE 04:56:17 59° E 05:00:46 10° S
CZ-4B R/B 4.3 04:52:11 10° NNE 04:57:25 44° E 05:02:32 10° S
UNKNOWN OBJECT B 4.0 04:55:19 10° N 04:58:46 27° WNW 05:00:00 23° W
Cosmos 1726 3.4 05:03:54 21° W 05:04:36 23° WNW 05:07:36 10° NNW
Cosmos 2369 3.8 05:01:30 10° NNW 05:07:11 81° ENE 05:12:50 10° SSE
Cosmos 1328 Rocket 3.8 05:05:17 20° SW 05:07:59 47° WNW 05:12:11 10° N
SL-27 R/B 3.7 05:08:12 21° W 05:09:12 25° WNW 05:12:06 10° N
ADEOS II 2.0 05:03:57 10° N 05:09:14 80° WNW 05:14:28 10° SSW
Cosmos 2016 Rocket 3.9 05:04:07 10° S 05:10:15 82° W 05:16:23 10° N
Cosmos 1892 2.7 05:06:32 10° N 05:10:22 84° E 05:14:12 10° S
Meteor 1-27 4.3 05:05:54 10° S 05:11:35 86° E 05:17:13 10° N
NOSS 3-1 (C) 4.1 05:04:18 10° NW 05:11:52 64° WSW 05:20:10 10° SSE
MOS 1-B 4.4 05:06:57 10° N 05:12:44 67° WNW 05:18:28 10° SSW
Landsat 4 4.4 05:09:06 10° SSE 05:12:45 57° ENE 05:16:27 10° N
Hubble Space Telescope 3.0 05:13:00 10° SSW 05:14:16 11° S 05:15:33 10° SSE
Shenzhou-11 Module 3.1 05:14:51 20° SSW 05:16:30 34° SSE 05:19:22 10° E
In-Cosmos 22 Rocket 4.3 05:11:30 10° NNW 05:16:40 47° W 05:21:43 10° SSW
PSLV R/B 3.5 05:12:48 10° NNE 05:17:11 90° SW 05:21:29 10° SSW
BREEZE-M DEB (TANK) 3.6 05:20:14 14° SSW 05:20:14 14° SSW 05:21:26 10° S
Cosmos 1656 3.8 05:16:05 10° NNW 05:21:49 82° ENE 05:27:31 10° SSE
Cosmos 1725 Rocket 4.0 05:16:42 10° S 05:22:53 88° E 05:29:06 10° N
Cosmos 1802 Rocket 4.2 05:18:21 10° SSW 05:24:23 54° WNW 05:30:33 10° N
Cosmos 1825 4.3 05:22:13 10° NNE 05:25:39 31° ENE 05:29:04 10° SE
Cosmos 1933 Rocket 3.9 05:21:59 10° NNW 05:26:15 45° W 05:30:29 10° SSW
Cosmos 773 Rocket 4.5 05:26:23 12° SW 05:31:01 45° WNW 05:36:07 10° N
Abrixas 2.5 05:29:36 10° WNW 05:32:02 40° SW 05:34:31 10° SE
COSMOS 2487 2.4 05:29:12 10° SSW 05:32:44 85° WNW 05:36:18 10° NNE
Okean O Rocket 1.7 05:30:50 10° N 05:35:15 65° WNW 05:39:35 10° SSW
Cosmos 1833 Rocket 2.7 05:33:57 10° SSW 05:39:36 90° W 05:45:18 10° NNE
Cosmos 1408 3.5 05:38:33 10° N 05:42:06 51° E 05:45:37 10° SSE
Cosmos 1151 Rocket 3.7 05:38:56 10° SW 05:42:51 34° WNW 05:46:47 10° N
Tsikada Rocket 4.0 05:37:14 10° NNW 05:43:30 71° W 05:49:49 10° S
Cosmos 1707 Rocket 4.1 05:41:19 10° S 05:45:41 63° E 05:50:02 10° NNE
Cosmos 1980 Rocket 2.9 05:47:49 10° NNW 05:53:23 61° ENE 05:58:56 10° SE
Cosmos 2278 4.1 05:51:35 10° NW 05:56:51 41° WSW 06:02:05 10° S
